Location: Newark
(7.0858°N, 171.3717°E)
Time: 15:36:58
(UTC+00:00)

Courier 1B Rocket - Pass Details

Date: 04 December 2020
Orbit: 920 x 1202 km, 28.2° (Epoch: 20 January)

Event Time Altitude Azimuth Distance (km) Brightness Sun altitude
Rises 20:35:13 0° 312° (NW) 4,088 7.7 26.5°
Reaches altitude 10° 20:38:34 10° 323° (NW) 3,114 7.2 27.2°
Maximum altitude 20:45:06 29° 21° (NNE) 1,984 6.8 28.6°
Drops below altitude 10° 20:51:24 10° 78° (ENE) 2,998 8.4 30.0°
Sets 20:54:32 0° 89° (E) 3,913 9.0 30.7°
